Hourly Data Report for September 11, 2017

All times are specified in Local Standard Time (LST). Add 1 hour to adjust for Daylight Saving Time where and when it is observed.

OTTAWA INTL A
ONTARIO

45°19'00.000" N
75°40'00.000" W
114.90 m
6106001
71628
YOW

Download Data

Hourly Data (September 2017)
Hourly Data Report for September 11, 2017
Temp Definition
°C
Dew Point Temp Definition
°C
Rel Hum Definition
%
Wind Dir Definition
10's deg

Wind Spd Definition
km/h
Visibility Definition
km
Stn Press Definition
kPa
Hmdx Definition


Wind Chill Definition


Weather Definition


TIME
00:00 Legend Double Dagger 10.0 8.0 87 25 4 24.1 101.53     LegendNANA
01:00 Legend Double Dagger 9.1 7.4 89 22 7 24.1 101.50     Clear
02:00 Legend Double Dagger 7.6 6.5 92 26 8 24.1 101.49     LegendNANA
03:00 Legend Double Dagger 8.1 6.9 92 26 8 24.1 101.47     LegendNANA
04:00 Legend Double Dagger 8.0 6.8 92 22 3 24.1 101.43     Clear
05:00 Legend Double Dagger 8.2 7.7 97 25 8 24.1 101.44     LegendNANA
06:00 Legend Double Dagger 8.0 7.0 93 27 7 24.1 101.42     LegendNANA
07:00 Legend Double Dagger 10.0 9.1 94 25 4 24.1 101.42     Clear
08:00 Legend Double Dagger 12.8 10.8 88 25 3 24.1 101.42     LegendNANA
09:00 Legend Double Dagger 15.5 11.0 74 36 2 24.1 101.41     LegendNANA
10:00 Legend Double Dagger 18.1 11.3 64 23 8 24.1 101.41     Clear
11:00 Legend Double Dagger 20.0 10.7 55 27 7 24.1 101.31     LegendNANA
12:00 Legend Double Dagger 20.9 9.7 48 23 7 24.1 101.21     LegendNANA
13:00 Legend Double Dagger 21.9 10.6 48 25 12 24.1 101.10     Clear
14:00 Legend Double Dagger 22.1 10.9 48 26 11 24.1 101.04     LegendNANA
15:00 Legend Double Dagger 22.4 9.7 44 29 12 24.1 100.98     LegendNANA
16:00 Legend Double Dagger 22.6 10.6 46 24 12 24.1 100.95     Clear
17:00 Legend Double Dagger 21.6 12.7 56 24 7 24.1 100.89     LegendNANA
18:00 Legend Double Dagger 18.6 12.6 68 18 4 24.1 100.80     LegendNANA
19:00 Legend Double Dagger 17.5 12.4 72 22 4 24.1 100.77     Mainly Clear
20:00 Legend Double Dagger 16.6 11.7 73 19 8 24.1 100.76     LegendNANA
21:00 Legend Double Dagger 15.3 11.6 78 20 10 24.1 100.69     LegendNANA
22:00 Legend Double Dagger 13.8 11.9 88 20 9 24.1 100.67     Mainly Clear
23:00 Legend Double Dagger 13.6 12.1 91 20 8 24.1 100.62     LegendNANA

Notes on Data Quality.

Legend

  • E = Estimated
  • M = Missing
  • NA = Not Available
  • ‡ = Partner data that is not subject to review by the National Climate Archives
Date modified: